カタログに戻る

COSMOS 2360

運用中軍事LEO
NORAD 25406·PAYLOAD·🇷🇺 Russia

打ち上げ Jul 28, 1998 から Baikonur Cosmodrome

Loading…

次のパス (今後24時間)

TLE

最新Source: Space-Track

元期: Sep 14, 2026, 21:24 UTC

1 25406U 98045A   26257.89173673 -.00000261  00000-0 -11471-3 0  9997
2 25406  70.7180  87.7886 0007812 238.4281 121.6076 14.12379778450700

AllMySatでCOSMOS 2360をリアルタイム追跡

Download on the App Store